World > North America > United States > Texas

Hourly Elmendorf, TX Regional Weather

Feedback E-mail the Weather

Quick WX

Elmendorf, TX Weather Maps

°F °C°F °C
Elmendorf Weather Map
UTC Time: 7/7/2022, 04:40
Your Time:

Elmendorf, TX Regional Weather

Expires:202207070500;;877673
ASUS44 KSJT 070415
RWRSJT
WEST CENTRAL TEXAS REGIONAL WEATHER ROUNDUP
NATIONAL WEATHER SERVICE SAN ANGELO TX
1100 PM CDT WED JUL 06 2022

NOTE: "FAIR" INDICATES FEW OR NO CLOUDS BELOW 12,000 FEET WITH NO
SIGNIFICANT WEATHER AND/OR OBSTRUCTIONS TO VISIBILITY.


TXZ145-158-159-173-191-192-194-205-207-220-223-070500-
CENTRAL AND SOUTH CENTRAL TEXAS
  
CITY           SKY/WX    TMP DP  RH WIND       PRES   REMARKS
AUSTIN/BERGSTM PTCLDY    86  70  58 S15G22    29.94R                  
WACO           CLEAR     92  64  39 SE13      29.91R                  
HILLSBORO      CLEAR     90  64  42 SE8       29.92R                  
TEMPLE         CLEAR     90  66  45 SE14      29.93R                  
KILLEEN-GRAY   PTCLDY    86  63  46 SE9       29.90R                  
FORT HOOD      CLEAR     89  64  42 S12       29.93R                  
GEORGETOWN     PTCLDY    89  68  49 S12G22    29.96R                  
LAGO VISTA     FAIR      86  68  55 S8G21     29.97R                  
SAN MARCOS     PTCLDY    85  70  60 S12       29.96R                  
NEW BRAUNFELS  PTCLDY    85  70  60 S13       29.94R                  
RANDOLPH AFB   CLEAR     84  71  64 SE15G21   29.93R                  
SAN ANTONIO    PTCLDY    86  70  58 SE17G25   29.95R                  
STINSON        CLEAR     86  72  62 SE13G25   29.92R                  
PLEASANTON     NOT AVBL                                               
LA GRANGE      MOCLDY    85  72  65 S10       29.94R                  
GIDDINGS       MOCLDY    86  70  58 S8        29.96R                  
$$


SKY/WX - Weather  TMP - Temperature  DP - Dew Point  RH - Humidity
WIND - Wind Direction/Speed PRES - Barometric Pressure VSB - Visibility
WCI - Wind Chill Index E13G22 Wind - East Wind 13 mph/Gusts of 22 mph

Trending Headlines

Elmendorf Radar Loop



Elmendorf Quick Facts


National Two Day Weather Forecast


E-mail the Elmendorf Weather Forecast

Voice your opinion or tell us about page issues...